Check out our new BloomSky Weather System.

Active alerts

Fort Bend, TX
  Details for Fort Bend, TX River Flood Warning  +1 additional alert
Houston, TX
  Details for Houston, TX Wind Advisory
Galveston, TX
  Details for Galveston, TX Wind Advisory


Thunder radar  blitzortung!


Rain radar more information rain snow radar


Visit our other weather sites:

Template documentation
and downloads

And another site



Weather Underground History page Text

Daily Summary for July 26, 2017 Units:  English    Metric   Both
« Previous Day
Next Day »
Daily Weekly Monthly Yearly Custom
  High: Low: Average:
Temperature: TemperatureF °F 78.4 °F 86.4 °F
Dew Point: DewpointF °F 74.5 °F 76.8 °F
Humidity: Humidity % 51 % 74 %
Wind Speed: WindSpeedMPH mph 0.0 mph 3 mph
Wind Gust: WindSpeedGustMPH mph - -
Wind:- - SSE
Pressure: PressureIn in 29.99 in -
Precipitation: 0.00 in    
Historical Graphs
 
 
Tabular Data for July 26, 2017
Time Temperature Dew Point Pressure Wind Wind Speed Wind Gust Humidity Rainfall Rate (Hourly)
TemperatureF °F DewpointF °F PressureIn in Calm     Humidity % HourlyPrecipIn in
00:01 83.5 °F 78.1 °F 30.08 in SSE 3.0 mph 8.0 mph 84 % 0.00 in
00:06 83.5 °F 78.1 °F 30.08 in SE 2.0 mph 8.0 mph 84 % 0.00 in
00:11 83.5 °F 78.4 °F 30.08 in ESE 4.0 mph 8.0 mph 85 % 0.00 in
00:16 83.5 °F 78.4 °F 30.08 in SSE 3.0 mph 7.0 mph 85 % 0.00 in
00:21 83.3 °F 78.3 °F 30.08 in SE 3.0 mph 6.0 mph 85 % 0.00 in
00:26 83.3 °F 78.3 °F 30.08 in South 3.0 mph 9.0 mph 85 % 0.00 in
00:31 83.1 °F 78.1 °F 30.08 in South 3.0 mph 9.0 mph 85 % 0.00 in
00:36 83.1 °F 78.1 °F 30.07 in SSE 5.0 mph 9.0 mph 85 % 0.00 in
00:41 82.9 °F 78.3 °F 30.07 in SSE 2.0 mph 6.0 mph 86 % 0.00 in
00:46 82.9 °F 78.3 °F 30.07 in South 3.0 mph 6.0 mph 86 % 0.00 in
00:51 82.8 °F 78.1 °F 30.06 in SSE 2.0 mph 6.0 mph 86 % 0.00 in
00:56 82.8 °F 78.1 °F 30.06 in SE 2.0 mph 5.0 mph 86 % 0.00 in
01:01 82.6 °F 78.3 °F 30.06 in SSW 2.0 mph 5.0 mph 87 % 0.00 in
01:06 82.4 °F 78.1 °F 30.06 in ESE 2.0 mph 4.0 mph 87 % 0.00 in
01:12 82.2 °F 77.9 °F 30.06 in SE 2.0 mph 4.0 mph 87 % 0.00 in
01:17 82.2 °F 77.9 °F 30.06 in SE 2.0 mph 4.0 mph 87 % 0.00 in
01:22 82.2 °F 78.3 °F 30.05 in ESE 2.0 mph 3.0 mph 88 % 0.00 in
01:27 82.0 °F 78.1 °F 30.05 in Calm   3.0 mph 88 % 0.00 in
01:32 82.0 °F 78.1 °F 30.05 in Calm   3.0 mph 88 % 0.00 in
01:37 81.9 °F 77.9 °F 30.05 in SE 1.0 mph 3.0 mph 88 % 0.00 in
01:42 81.9 °F 77.9 °F 30.05 in South 2.0 mph 3.0 mph 88 % 0.00 in
01:47 81.7 °F 77.7 °F 30.05 in Calm   3.0 mph 88 % 0.00 in
01:52 81.7 °F 77.7 °F 30.05 in Calm   3.0 mph 88 % 0.00 in
01:57 81.5 °F 77.9 °F 30.05 in Calm   2.0 mph 89 % 0.00 in
02:02 81.3 °F 77.7 °F 30.04 in East 1.0 mph 2.0 mph 89 % 0.00 in
02:07 81.3 °F 77.7 °F 30.04 in Calm   2.0 mph 89 % 0.00 in
02:12 81.1 °F 77.5 °F 30.04 in East 1.0 mph 2.0 mph 89 % 0.00 in
02:17 81.0 °F 77.4 °F 30.04 in Calm   1.0 mph 89 % 0.00 in
02:22 80.8 °F 77.2 °F 30.04 in Calm   1.0 mph 89 % 0.00 in
02:27 80.8 °F 77.2 °F 30.04 in Calm   1.0 mph 89 % 0.00 in
02:32 80.4 °F 76.8 °F 30.04 in ESE 1.0 mph 1.0 mph 89 % 0.00 in
02:37 80.4 °F 76.8 °F 30.04 in ESE 1.0 mph 1.0 mph 89 % 0.00 in
02:41 80.2 °F 76.6 °F 30.04 in Calm   2.0 mph 89 % 0.00 in
02:42 80.2 °F 76.6 °F 30.04 in Calm   2.0 mph 89 % 0.00 in
02:47 80.2 °F 76.6 °F 30.04 in Calm   2.0 mph 89 % 0.00 in
02:52 80.2 °F 76.6 °F 30.04 in Calm   2.0 mph 89 % 0.00 in
02:57 80.1 °F 76.5 °F 30.03 in Calm   2.0 mph 89 % 0.00 in
03:02 80.1 °F 76.5 °F 30.03 in Calm   1.0 mph 89 % 0.00 in
03:07 79.9 °F 76.6 °F 30.03 in Calm   1.0 mph 90 % 0.00 in
03:12 79.9 °F 76.6 °F 30.03 in Calm   1.0 mph 90 % 0.00 in
03:17 79.7 °F 76.5 °F 30.03 in Calm   1.0 mph 90 % 0.00 in
03:22 79.5 °F 76.3 °F 30.03 in Calm     90 % 0.00 in
03:27 79.3 °F 76.1 °F 30.03 in Calm   1.0 mph 90 % 0.00 in
03:32 79.3 °F 76.5 °F 30.03 in Calm   1.0 mph 91 % 0.00 in
03:37 79.3 °F 76.5 °F 30.03 in Calm   1.0 mph 91 % 0.00 in
03:42 79.3 °F 76.5 °F 30.03 in Calm   1.0 mph 91 % 0.00 in
03:47 79.2 °F 76.3 °F 30.03 in Calm   1.0 mph 91 % 0.00 in
03:52 79.2 °F 76.3 °F 30.04 in Calm   1.0 mph 91 % 0.00 in
03:57 79.2 °F 76.3 °F 30.04 in Calm   1.0 mph 91 % 0.00 in
04:02 79.2 °F 76.3 °F 30.04 in Calm   1.0 mph 91 % 0.00 in
04:07 79.0 °F 76.1 °F 30.04 in Calm   1.0 mph 91 % 0.00 in
04:12 79.0 °F 76.1 °F 30.04 in Calm   1.0 mph 91 % 0.00 in
04:17 79.0 °F 76.1 °F 30.04 in Calm   1.0 mph 91 % 0.00 in
04:22 79.0 °F 76.1 °F 30.04 in SE 1.0 mph 1.0 mph 91 % 0.00 in
04:27 79.0 °F 76.1 °F 30.04 in Calm   1.0 mph 91 % 0.00 in
04:32 79.0 °F 76.1 °F 30.04 in Calm   1.0 mph 91 % 0.00 in
04:37 79.2 °F 76.3 °F 30.04 in East 1.0 mph 1.0 mph 91 % 0.00 in
04:42 79.2 °F 76.3 °F 30.04 in Calm   3.0 mph 91 % 0.00 in
04:47 79.0 °F 76.1 °F 30.04 in SE 1.0 mph 3.0 mph 91 % 0.00 in
04:52 79.0 °F 76.1 °F 30.05 in Calm   3.0 mph 91 % 0.00 in
04:57 79.0 °F 76.1 °F 30.05 in Calm   2.0 mph 91 % 0.00 in
05:02 79.0 °F 76.1 °F 30.05 in Calm   2.0 mph 91 % 0.00 in
05:07 79.0 °F 76.1 °F 30.06 in Calm   2.0 mph 91 % 0.00 in
05:12 78.8 °F 75.9 °F 30.06 in Calm   2.0 mph 91 % 0.00 in
05:17 78.6 °F 75.7 °F 30.06 in Calm   1.0 mph 91 % 0.00 in
05:22 78.8 °F 75.9 °F 30.06 in Calm   2.0 mph 91 % 0.00 in
05:27 78.8 °F 75.9 °F 30.06 in Calm   2.0 mph 91 % 0.00 in
05:32 78.8 °F 75.9 °F 30.06 in Calm   2.0 mph 91 % 0.00 in
05:37 78.8 °F 75.9 °F 30.06 in Calm   2.0 mph 91 % 0.00 in
05:42 78.8 °F 75.9 °F 30.07 in Calm   1.0 mph 91 % 0.00 in
05:47 78.8 °F 75.9 °F 30.07 in Calm   1.0 mph 91 % 0.00 in
05:52 78.8 °F 75.9 °F 30.07 in Calm   1.0 mph 91 % 0.00 in
05:57 78.6 °F 75.7 °F 30.07 in Calm   1.0 mph 91 % 0.00 in
06:02 78.6 °F 75.7 °F 30.08 in Calm   1.0 mph 91 % 0.00 in
06:07 78.6 °F 75.7 °F 30.08 in Calm   2.0 mph 91 % 0.00 in
06:12 78.6 °F 75.7 °F 30.07 in ESE 1.0 mph 2.0 mph 91 % 0.00 in
06:17 78.6 °F 75.4 °F 30.08 in ESE 1.0 mph 2.0 mph 90 % 0.00 in
06:22 78.6 °F 75.4 °F 30.07 in South 1.0 mph 2.0 mph 90 % 0.00 in
06:27 78.6 °F 75.4 °F 30.08 in South 2.0 mph 2.0 mph 90 % 0.00 in
06:32 78.6 °F 75.4 °F 30.07 in SSW 1.0 mph 2.0 mph 90 % 0.00 in
06:37 78.6 °F 75.4 °F 30.08 in SE 1.0 mph 3.0 mph 90 % 0.00 in
06:41 78.6 °F 75.4 °F 30.08 in Calm   3.0 mph 90 % 0.00 in
06:46 78.4 °F 75.2 °F 30.08 in South 1.0 mph 3.0 mph 90 % 0.00 in
06:51 78.4 °F 75.2 °F 30.08 in Calm   2.0 mph 90 % 0.00 in
06:56 78.4 °F 75.2 °F 30.08 in SSE 1.0 mph 2.0 mph 90 % 0.00 in
07:01 78.4 °F 75.2 °F 30.09 in Calm   2.0 mph 90 % 0.00 in
07:06 78.4 °F 75.2 °F 30.09 in Calm   1.0 mph 90 % 0.00 in
07:11 78.4 °F 75.6 °F 30.08 in Calm   1.0 mph 91 % 0.00 in
07:16 78.4 °F 75.6 °F 30.08 in Calm   1.0 mph 91 % 0.00 in
07:21 78.4 °F 75.6 °F 30.08 in Calm   1.0 mph 91 % 0.00 in
07:26 78.4 °F 75.6 °F 30.08 in Calm   1.0 mph 91 % 0.00 in
07:31 78.6 °F 75.7 °F 30.09 in Calm   1.0 mph 91 % 0.00 in
07:36 78.6 °F 75.7 °F 30.09 in Calm     91 % 0.00 in
07:41 79.0 °F 76.1 °F 30.09 in Calm     91 % 0.00 in
07:46 79.3 °F 76.5 °F 30.09 in Calm   1.0 mph 91 % 0.00 in
07:51 79.7 °F 76.5 °F 30.09 in Calm   1.0 mph 90 % 0.00 in
07:56 80.1 °F 76.8 °F 30.09 in ESE 1.0 mph 1.0 mph 90 % 0.00 in
08:01 80.2 °F 76.6 °F 30.09 in ESE 1.0 mph 4.0 mph 89 % 0.00 in
08:06 80.2 °F 76.3 °F 30.09 in Calm   4.0 mph 88 % 0.00 in
08:11 80.6 °F 76.6 °F 30.09 in East 1.0 mph 4.0 mph 88 % 0.00 in
08:16 81.0 °F 77.0 °F 30.09 in SSW 3.0 mph 3.0 mph 88 % 0.00 in
08:21 81.1 °F 77.2 °F 30.09 in SSE 1.0 mph 4.0 mph 88 % 0.00 in
08:26 81.3 °F 77.4 °F 30.10 in South 2.0 mph 4.0 mph 88 % 0.00 in
08:31 82.0 °F 78.4 °F 30.10 in East 1.0 mph 4.0 mph 89 % 0.00 in
08:36 82.8 °F 78.1 °F 30.09 in SE 1.0 mph 4.0 mph 86 % 0.00 in
08:41 83.5 °F 78.4 °F 30.10 in Calm   6.0 mph 85 % 0.00 in
08:46 84.2 °F 78.8 °F 30.10 in SSW 3.0 mph 7.0 mph 84 % 0.00 in
08:51 84.7 °F 78.3 °F 30.10 in ESE 3.0 mph 7.0 mph 81 % 0.00 in
08:56 85.3 °F 78.8 °F 30.10 in South 2.0 mph 7.0 mph 81 % 0.00 in
09:01 85.8 °F 79.0 °F 30.10 in ESE 6.0 mph 7.0 mph 80 % 0.00 in
09:06 86.2 °F 78.4 °F 30.10 in SSE 4.0 mph 8.0 mph 78 % 0.00 in
09:07 86.2 °F 78.1 °F 30.10 in SSE 3.0 mph 8.0 mph 77 % 0.00 in
09:12 86.5 °F 78.1 °F 30.10 in SSE 5.0 mph 8.0 mph 76 % 0.00 in
09:17 86.7 °F 78.3 °F 30.10 in South 3.0 mph 9.0 mph 76 % 0.00 in
09:22 86.7 °F 77.9 °F 30.10 in South 3.0 mph 10.0 mph 75 % 0.00 in
09:27 87.3 °F 78.8 °F 30.10 in SSW 5.0 mph 10.0 mph 76 % 0.00 in
09:32 87.6 °F 78.6 °F 30.10 in SSE 4.0 mph 10.0 mph 75 % 0.00 in
09:37 88.0 °F 79.0 °F 30.10 in SSW 3.0 mph 9.0 mph 75 % 0.00 in
09:42 88.2 °F 77.9 °F 30.10 in East 4.0 mph 9.0 mph 72 % 0.00 in
09:47 88.2 °F 78.4 °F 30.10 in South 4.0 mph 8.0 mph 73 % 0.00 in
09:52 88.2 °F 78.8 °F 30.10 in SE 5.0 mph 8.0 mph 74 % 0.00 in
09:57 88.2 °F 77.5 °F 30.10 in SSE 6.0 mph 9.0 mph 71 % 0.00 in
10:02 88.2 °F 78.4 °F 30.10 in SSE 6.0 mph 9.0 mph 73 % 0.00 in
10:07 88.3 °F 78.6 °F 30.10 in SSE 7.0 mph 9.0 mph 73 % 0.00 in
10:12 88.3 °F 77.7 °F 30.10 in SSE 5.0 mph 9.0 mph 71 % 0.00 in
10:17 88.0 °F 78.3 °F 30.10 in SSE 3.0 mph 9.0 mph 73 % 0.00 in
10:22 88.0 °F 79.0 °F 30.10 in SW 4.0 mph 10.0 mph 75 % 0.00 in
10:27 88.2 °F 77.5 °F 30.10 in SSE 2.0 mph 10.0 mph 71 % 0.00 in
10:32 88.5 °F 79.2 °F 30.10 in SSW 4.0 mph 10.0 mph 74 % 0.00 in
10:37 89.1 °F 78.1 °F 30.10 in South 4.0 mph 8.0 mph 70 % 0.00 in
10:42 89.2 °F 78.1 °F 30.10 in South 3.0 mph 8.0 mph 70 % 0.00 in
10:47 89.2 °F 77.7 °F 30.10 in SSW 3.0 mph 10.0 mph 69 % 0.00 in
10:52 89.6 °F 79.0 °F 30.09 in South 2.0 mph 10.0 mph 71 % 0.00 in
10:57 90.1 °F 78.6 °F 30.10 in SSE 2.0 mph 10.0 mph 69 % 0.00 in
11:02 90.5 °F 78.1 °F 30.10 in South 4.0 mph 6.0 mph 67 % 0.00 in
11:07 90.3 °F 76.5 °F 30.10 in SSW 2.0 mph 8.0 mph 64 % 0.00 in
11:12 90.9 °F 78.4 °F 30.09 in SSW 3.0 mph 8.0 mph 67 % 0.00 in
11:17 90.9 °F 77.0 °F 30.09 in SE 2.0 mph 8.0 mph 64 % 0.00 in
11:22 91.2 °F 78.3 °F 30.09 in North 1.0 mph 8.0 mph 66 % 0.00 in
11:27 91.9 °F 77.5 °F 30.09 in SE 1.0 mph 8.0 mph 63 % 0.00 in
11:32 92.5 °F 78.1 °F 30.09 in Calm   5.0 mph 63 % 0.00 in
11:37 92.1 °F 76.3 °F 30.08 in WNW 1.0 mph 5.0 mph 60 % 0.00 in
11:42 92.5 °F 77.5 °F 30.08 in South 3.0 mph 4.0 mph 62 % 0.00 in
11:47 92.5 °F 77.0 °F 30.08 in South 3.0 mph 6.0 mph 61 % 0.00 in
11:52 91.9 °F 77.0 °F 30.09 in ENE 2.0 mph 9.0 mph 62 % 0.00 in
11:57 91.9 °F 77.0 °F 30.08 in South 6.0 mph 9.0 mph 62 % 0.00 in
12:02 92.5 °F 78.1 °F 30.08 in SSW 3.0 mph 9.0 mph 63 % 0.00 in
12:07 92.3 °F 76.5 °F 30.08 in SSE 5.0 mph 9.0 mph 60 % 0.00 in
12:12 91.9 °F 76.6 °F 30.07 in SE 5.0 mph 9.0 mph 61 % 0.00 in
12:17 92.1 °F 77.2 °F 30.07 in SSE 3.0 mph 9.0 mph 62 % 0.00 in
12:22 92.7 °F 78.3 °F 30.07 in SSW 2.0 mph 8.0 mph 63 % 0.00 in
12:27 92.5 °F 76.6 °F 30.07 in South 1.0 mph 11.0 mph 60 % 0.00 in
12:32 92.5 °F 77.0 °F 30.07 in SE 7.0 mph 11.0 mph 61 % 0.00 in
12:37 92.7 °F 77.7 °F 30.07 in South 4.0 mph 11.0 mph 62 % 0.00 in
12:42 92.5 °F 76.1 °F 30.07 in SSW 4.0 mph 10.0 mph 59 % 0.00 in
12:47 92.5 °F 76.6 °F 30.06 in SE 7.0 mph 10.0 mph 60 % 0.00 in
12:52 93.0 °F 78.6 °F 30.06 in NNW 2.0 mph 10.0 mph 63 % 0.00 in
12:57 93.2 °F 76.6 °F 30.06 in South 3.0 mph 10.0 mph 59 % 0.00 in
13:02 93.2 °F 77.7 °F 30.06 in SSW 3.0 mph 8.0 mph 61 % 0.00 in
13:07 93.6 °F 78.6 °F 30.06 in SSW 3.0 mph 9.0 mph 62 % 0.00 in
13:12 93.6 °F 77.5 °F 30.06 in SSE 5.0 mph 9.0 mph 60 % 0.00 in
13:17 93.6 °F 78.6 °F 30.06 in SSW 2.0 mph 9.0 mph 62 % 0.00 in
13:22 93.9 °F 79.0 °F 30.06 in South 3.0 mph 9.0 mph 62 % 0.00 in
13:24 94.3 °F 78.3 °F 30.06 in SSW 3.0 mph 9.0 mph 60 % 0.00 in
13:29 94.3 °F 77.2 °F 30.06 in SSW 2.0 mph 7.0 mph 58 % 0.00 in
13:34 94.3 °F 75.6 °F 30.06 in ESE 5.0 mph 7.0 mph 55 % 0.00 in
13:36 94.1 °F 76.5 °F 30.06 in SSE 6.0 mph 8.0 mph 57 % 0.00 in
13:41 94.1 °F 77.5 °F 30.06 in SE 2.0 mph 8.0 mph 59 % 0.00 in
13:46 94.3 °F 76.6 °F 30.06 in Calm   8.0 mph 57 % 0.00 in
13:51 94.5 °F 76.3 °F 30.06 in SSW 1.0 mph 8.0 mph 56 % 0.00 in
13:56 94.5 °F 76.3 °F 30.06 in ESE 1.0 mph 8.0 mph 56 % 0.00 in
14:01 94.8 °F 79.3 °F 30.05 in South 1.0 mph 6.0 mph 61 % 0.00 in
14:06 95.4 °F 76.6 °F 30.05 in SE 4.0 mph 6.0 mph 55 % 0.00 in
14:11 95.2 °F 77.0 °F 30.05 in SE 1.0 mph 8.0 mph 56 % 0.00 in
14:12 95.2 °F 77.0 °F 30.05 in SSW 2.0 mph 8.0 mph 56 % 0.00 in
14:17 95.5 °F 79.0 °F 30.05 in SSW 1.0 mph 8.0 mph 59 % 0.00 in
14:22 96.1 °F 79.0 °F 30.04 in South 1.0 mph 8.0 mph 58 % 0.00 in
14:27 96.4 °F 77.5 °F 30.04 in SSE 4.0 mph 6.0 mph 55 % 0.00 in
14:32 95.5 °F 76.8 °F 30.04 in SSW 1.0 mph 8.0 mph 55 % 0.00 in
14:37 95.4 °F 77.7 °F 30.04 in ESE 6.0 mph 8.0 mph 57 % 0.00 in
14:42 95.2 °F 77.5 °F 30.04 in SE 3.0 mph 8.0 mph 57 % 0.00 in
14:46 95.4 °F 78.3 °F 30.04 in SSE 4.0 mph 8.0 mph 58 % 0.00 in
14:51 95.5 °F 77.9 °F 30.03 in Calm   8.0 mph 57 % 0.00 in
14:56 95.7 °F 77.0 °F 30.03 in SE 7.0 mph 7.0 mph 55 % 0.00 in
15:01 95.5 °F 76.8 °F 30.03 in SSW 1.0 mph 11.0 mph 55 % 0.00 in
15:06 95.4 °F 76.6 °F 30.03 in South 3.0 mph 11.0 mph 55 % 0.00 in
15:08 95.5 °F 77.9 °F 30.03 in SE 1.0 mph 11.0 mph 57 % 0.00 in
15:13 95.5 °F 76.3 °F 30.02 in South 8.0 mph 11.0 mph 54 % 0.00 in
15:18 95.5 °F 75.7 °F 30.02 in SE 1.0 mph 9.0 mph 53 % 0.00 in
15:23 96.1 °F 76.1 °F 30.02 in East 2.0 mph 9.0 mph 53 % 0.00 in
15:28 96.6 °F 77.7 °F 30.01 in SE 3.0 mph 9.0 mph 55 % 0.00 in
15:33 96.6 °F 76.1 °F 30.02 in ESE 6.0 mph 9.0 mph 52 % 0.00 in
15:38 96.1 °F 75.0 °F 30.01 in SSE 5.0 mph 9.0 mph 51 % 0.00 in
15:43 95.5 °F 74.5 °F 30.01 in ESE 8.0 mph 9.0 mph 51 % 0.00 in
15:48 95.5 °F 75.7 °F 30.01 in South 5.0 mph 9.0 mph 53 % 0.00 in
15:53 95.7 °F 75.9 °F 30.01 in SSW 4.0 mph 9.0 mph 53 % 0.00 in
15:58 95.9 °F 77.2 °F 30.01 in ESE 5.0 mph 9.0 mph 55 % 0.00 in
16:03 96.1 °F 75.6 °F 30.01 in SE 3.0 mph 9.0 mph 52 % 0.00 in
16:08 95.5 °F 74.5 °F 30.01 in East 4.0 mph 7.0 mph 51 % 0.00 in
16:13 95.5 °F 77.9 °F 30.00 in SE 12.0 mph 12.0 mph 57 % 0.00 in
16:18 94.6 °F 77.5 °F 30.00 in SSE 12.0 mph 14.0 mph 58 % 0.00 in
16:23 94.3 °F 78.3 °F 30.00 in SSE 5.0 mph 14.0 mph 60 % 0.00 in
16:28 94.3 °F 77.7 °F 30.00 in ESE 9.0 mph 14.0 mph 59 % 0.00 in
16:33 93.6 °F 77.0 °F 30.01 in SE 6.0 mph 14.0 mph 59 % 0.00 in
16:38 92.7 °F 76.8 °F 30.01 in SSE 3.0 mph 14.0 mph 60 % 0.00 in
16:40 92.5 °F 76.6 °F 30.01 in East 2.0 mph 14.0 mph 60 % 0.00 in
16:45 91.9 °F 76.6 °F 30.00 in SE 10.0 mph 14.0 mph 61 % 0.00 in
16:50 91.9 °F 77.5 °F 30.00 in South 8.0 mph 13.0 mph 63 % 0.00 in
16:55 92.3 °F 77.9 °F 30.00 in ESE 9.0 mph 13.0 mph 63 % 0.00 in
17:00 92.5 °F 77.0 °F 30.00 in ESE 7.0 mph 14.0 mph 61 % 0.00 in
17:05 92.3 °F 77.4 °F 30.01 in ESE 6.0 mph 14.0 mph 62 % 0.00 in
17:10 91.9 °F 77.5 °F 30.00 in SE 5.0 mph 15.0 mph 63 % 0.00 in
17:15 91.8 °F 77.9 °F 30.00 in SE 10.0 mph 15.0 mph 64 % 0.00 in
17:20 91.9 °F 77.5 °F 30.00 in SSE 8.0 mph 15.0 mph 63 % 0.00 in
17:25 91.9 °F 78.1 °F 30.00 in SE 8.0 mph 14.0 mph 64 % 0.00 in
17:30 91.8 °F 78.3 °F 30.00 in ESE 13.0 mph 13.0 mph 65 % 0.00 in
17:32 91.6 °F 78.1 °F 30.00 in ESE 5.0 mph 15.0 mph 65 % 0.00 in
17:37 91.6 °F 78.6 °F 30.00 in ESE 10.0 mph 15.0 mph 66 % 0.00 in
17:42 91.0 °F 78.1 °F 30.00 in SSE 9.0 mph 15.0 mph 66 % 0.00 in
17:47 91.0 °F 77.5 °F 30.01 in South 9.0 mph 12.0 mph 65 % 0.00 in
17:49 90.9 °F 77.5 °F 30.01 in ESE 11.0 mph 12.0 mph 65 % 0.00 in
17:54 90.7 °F 77.4 °F 30.01 in ESE 11.0 mph 12.0 mph 65 % 0.00 in
17:59 90.9 °F 77.0 °F 30.01 in SE 8.0 mph 12.0 mph 64 % 0.00 in
18:04 90.7 °F 77.4 °F 30.01 in South 9.0 mph 12.0 mph 65 % 0.00 in
18:09 90.5 °F 77.2 °F 30.01 in ESE 8.0 mph 12.0 mph 65 % 0.00 in
18:14 90.5 °F 77.5 °F 30.01 in SE 8.0 mph 13.0 mph 66 % 0.00 in
18:19 90.5 °F 78.1 °F 30.01 in SSE 4.0 mph 13.0 mph 67 % 0.00 in
18:24 90.5 °F 78.1 °F 30.01 in SE 6.0 mph 13.0 mph 67 % 0.00 in
18:29 90.7 °F 78.6 °F 30.00 in SSE 5.0 mph 12.0 mph 68 % 0.00 in
18:34 90.7 °F 78.6 °F 30.00 in SE 4.0 mph 10.0 mph 68 % 0.00 in
18:39 90.9 °F 78.8 °F 30.00 in SSE 6.0 mph 10.0 mph 68 % 0.00 in
18:40 90.9 °F 78.8 °F 30.00 in SE 5.0 mph 10.0 mph 68 % 0.00 in
18:45 91.0 °F 78.6 °F 30.00 in SSE 4.0 mph 10.0 mph 67 % 0.00 in
18:50 91.2 °F 78.8 °F 29.99 in SSW 3.0 mph 10.0 mph 67 % 0.00 in
18:55 91.0 °F 78.6 °F 29.99 in SSE 9.0 mph 12.0 mph 67 % 0.00 in
19:00 90.9 °F 79.3 °F 29.99 in SSE 8.0 mph 14.0 mph 69 % 0.00 in
19:05 90.7 °F 78.6 °F 29.99 in SSE 7.0 mph 14.0 mph 68 % 0.00 in
19:10 90.9 °F 79.3 °F 29.99 in SSE 6.0 mph 14.0 mph 69 % 0.00 in
19:15 90.9 °F 79.3 °F 29.99 in ESE 9.0 mph 12.0 mph 69 % 0.00 in
19:20 90.7 °F 79.2 °F 29.99 in South 7.0 mph 13.0 mph 69 % 0.00 in
19:25 90.5 °F 79.0 °F 29.99 in SE 11.0 mph 15.0 mph 69 % 0.00 in
19:30 90.1 °F 79.0 °F 29.99 in SSE 4.0 mph 15.0 mph 70 % 0.00 in
19:35 90.1 °F 79.0 °F 29.99 in South 5.0 mph 15.0 mph 70 % 0.00 in
19:40 89.8 °F 79.2 °F 29.99 in ESE 7.0 mph 14.0 mph 71 % 0.00 in
19:45 89.6 °F 79.0 °F 30.00 in SE 4.0 mph 11.0 mph 71 % 0.00 in
19:50 89.4 °F 78.8 °F 30.00 in SE 3.0 mph 11.0 mph 71 % 0.00 in
19:55 89.2 °F 78.6 °F 30.00 in SSW 6.0 mph 11.0 mph 71 % 0.00 in
20:00 89.1 °F 78.4 °F 30.00 in SSW 3.0 mph 9.0 mph 71 % 0.00 in
20:05 89.1 °F 78.4 °F 30.00 in ESE 4.0 mph 9.0 mph 71 % 0.00 in
20:10 88.7 °F 78.4 °F 30.01 in SE 4.0 mph 9.0 mph 72 % 0.00 in
20:15 88.5 °F 77.9 °F 30.01 in SSE 9.0 mph 11.0 mph 71 % 0.00 in
20:20 88.5 °F 77.9 °F 30.00 in SE 3.0 mph 11.0 mph 71 % 0.00 in
20:25 88.3 °F 77.7 °F 30.01 in South 8.0 mph 11.0 mph 71 % 0.00 in
20:31 88.2 °F 77.5 °F 30.01 in SE 3.0 mph 9.0 mph 71 % 0.00 in
20:36 88.0 °F 77.9 °F 30.01 in ESE 5.0 mph 9.0 mph 72 % 0.00 in
20:41 87.8 °F 77.7 °F 30.01 in South 6.0 mph 9.0 mph 72 % 0.00 in
20:46 87.6 °F 77.5 °F 30.01 in South 2.0 mph 7.0 mph 72 % 0.00 in
20:51 87.4 °F 77.4 °F 30.01 in ESE 5.0 mph 7.0 mph 72 % 0.00 in
20:56 87.3 °F 77.2 °F 30.01 in SSE 5.0 mph 7.0 mph 72 % 0.00 in
21:01 87.3 °F 77.2 °F 30.01 in SE 4.0 mph 8.0 mph 72 % 0.00 in
21:06 87.1 °F 77.0 °F 30.01 in SSE 4.0 mph 8.0 mph 72 % 0.00 in
21:11 87.1 °F 76.5 °F 30.01 in SE 5.0 mph 8.0 mph 71 % 0.00 in
21:16 87.1 °F 76.5 °F 30.01 in SSW 6.0 mph 9.0 mph 71 % 0.00 in
21:21 86.9 °F 76.3 °F 30.01 in ESE 5.0 mph 9.0 mph 71 % 0.00 in
21:26 86.7 °F 76.1 °F 30.01 in South 5.0 mph 9.0 mph 71 % 0.00 in
21:31 86.5 °F 75.9 °F 30.01 in South 4.0 mph 8.0 mph 71 % 0.00 in
21:36 86.4 °F 75.9 °F 30.01 in South 5.0 mph 8.0 mph 71 % 0.00 in
21:41 86.4 °F 75.9 °F 30.01 in SSE 4.0 mph 8.0 mph 71 % 0.00 in
21:46 86.2 °F 76.1 °F 30.01 in SSW 4.0 mph 7.0 mph 72 % 0.00 in
21:51 85.8 °F 75.7 °F 30.01 in South 3.0 mph 7.0 mph 72 % 0.00 in
21:56 85.6 °F 75.6 °F 30.01 in SE 2.0 mph 6.0 mph 72 % 0.00 in
22:01 85.5 °F 75.4 °F 30.01 in SSE 2.0 mph 6.0 mph 72 % 0.00 in
22:06 85.5 °F 75.4 °F 30.01 in SE 1.0 mph 4.0 mph 72 % 0.00 in
22:11 85.5 °F 75.4 °F 30.01 in South 3.0 mph 4.0 mph 72 % 0.00 in
22:16 85.5 °F 75.4 °F 30.01 in SSE 2.0 mph 4.0 mph 72 % 0.00 in
22:21 85.3 °F 75.2 °F 30.02 in SE 2.0 mph 4.0 mph 72 % 0.00 in
22:26 85.3 °F 75.6 °F 30.02 in South 2.0 mph 4.0 mph 73 % 0.00 in
22:31 85.1 °F 75.4 °F 30.02 in SE 1.0 mph 4.0 mph 73 % 0.00 in
22:36 85.1 °F 75.4 °F 30.02 in SSE 2.0 mph 5.0 mph 73 % 0.00 in
22:41 84.9 °F 75.2 °F 30.03 in ESE 2.0 mph 5.0 mph 73 % 0.00 in
22:46 84.7 °F 75.2 °F 30.03 in South 7.0 mph 7.0 mph 73 % 0.00 in
22:51 84.7 °F 75.2 °F 30.03 in SE 5.0 mph 7.0 mph 73 % 0.00 in
22:56 84.6 °F 75.4 °F 30.03 in SE 3.0 mph 7.0 mph 74 % 0.00 in
23:01 84.4 °F 75.2 °F 30.03 in SE 2.0 mph 7.0 mph 74 % 0.00 in
23:06 84.2 °F 75.4 °F 30.03 in SE 2.0 mph 6.0 mph 75 % 0.00 in
23:11 84.2 °F 75.4 °F 30.03 in SSE 2.0 mph 6.0 mph 75 % 0.00 in
23:12 84.0 °F 75.2 °F 30.03 in South 2.0 mph 6.0 mph 75 % 0.00 in
23:17 84.0 °F 75.2 °F 30.03 in South 2.0 mph 6.0 mph 75 % 0.00 in
23:22 83.8 °F 75.4 °F 30.03 in SE 2.0 mph 5.0 mph 76 % 0.00 in
23:27 83.7 °F 75.2 °F 30.03 in SE 1.0 mph 5.0 mph 76 % 0.00 in
23:32 83.7 °F 75.7 °F 30.03 in SSE 1.0 mph 5.0 mph 77 % 0.00 in
23:37 83.5 °F 75.6 °F 30.03 in SSE 1.0 mph 5.0 mph 77 % 0.00 in
23:42 83.1 °F 75.2 °F 30.03 in SSE 1.0 mph 5.0 mph 77 % 0.00 in
23:47 82.9 °F 75.4 °F 30.04 in South 1.0 mph 4.0 mph 78 % 0.00 in
23:52 82.8 °F 75.6 °F 30.04 in South 1.0 mph 3.0 mph 79 % 0.00 in
23:57 82.6 °F 75.4 °F 30.03 in South 2.0 mph 3.0 mph 79 % 0.00 in
Spring, Texas: Villages of Bridgestone
Compliments of Weather Underground - 3 mb

Script developed by  Jim McMurry - jmcmurry@mwt.net Adapted for the template by  Wim van der Kuil - Leuven-Template.eu

You find our weather info also at:

UK Metoffice

WeatherCloud

Weather Underground

Mid-South Weather Network

AWEKAS

Citizen Weather Observer Program (CWOP)

HAMweather, WeatherForYou, PWS Weather

Equipment we use:

Weather-station
Davis Vantage Vue

Weather-program
Meteohub

Weather-server
Debian 7.9 x86 (Guest)

Provider
DreamHost

Davis Vantage Vue

Meteohub

Debian 7.9 x86 (Guest)

DreamHost